CAPE
0 0 0 0 0 0 0 0 0 0 0 0 0 0 0 0 0 0 0 0 0 0 0 0 0 124 642 1155 1560 1889 1920 2020 1903 1663 1615 1596 1542 1535 1598 1491 1438 1410 1425 1458
0 0 0 0 0 0 0 0 0 0 0 0 0 0 0 0 0 0 0 0 0 0 0 0 0 0 131 744 1346 1763 2122 2210 2223 1932 1721 1590 1599 1651 1752 1771 1697 1576 1494 1478
0 0 0 0 0 0 0 0 0 0 0 0 0 0 0 0 0 0 0 0 0 0 0 0 0 0 0 0 367 1306 1772 2111 2372 2246 1990 1851 1775 2029 2033 2052 2005 1892 1689 1573
0 0 0 0 0 0 0 0 0 0 0 0 0 0 0 0 0 0 0 0 0 0 0 25 42 0 0 0 0 5 921 1449 2009 2413 2266 2194 2159 2059 2023 2139 2199 2196 2112 1927
0 0 0 0 0 0 0 0 0 0 0 0 0 0 0 0 0 0 0 0 0 0 0 76 256 71 15 1 0 99 495 1092 1797 2217 2355 2417 2523 2472 2402 2443 2529 2596 2523 2453
0 0 0 0 0 0 0 0 0 0 0 0 0 0 0 0 0 0 0 0 0 0 0 0 25 218 322 443 356 5 294 785 1511 2172 2381 2443 2656 2617 2568 2638 2755 2739 2710 2660
0 0 0 0 0 0 0 0 0 0 0 0 0 0 0 0 0 0 0 0 0 0 2 0 0 11 85 415 782 909 839 756 1182 1788 2205 2343 2452 2649 2710 2735 2692 2586 2505 2515
0 0 0 0 0 0 0 0 0 0 0 0 0 0 0 0 0 0 0 0 0 0 0 0 0 0 0 2 155 564 857 1124 1497 1797 2144 2341 2418 2511 2586 2605 2576 2517 2572 2579
0 0 0 0 0 0 0 0 0 4 0 0 0 0 0 0 0 0 0 1 0 0 0 0 0 0 0 14 51 106 187 257 531 1012 1626 1973 2321 2509 2352 2420 2607 2686 2642 2528
0 0 0 0 0 0 0 0 0 0 0 0 0 0 0 0 0 1 2 1 14 0 0 0 0 0 0 4 4 23 16 11 13 96 463 1025 1490 1904 2170 2307 2418 2612 2389 2410
0 9 0 0 0 0 0 11 0 5 0 0 0 0 0 0 0 35 27 8 0 0 0 0 0 1 3 3 9 14 1 0 0 0 29 212 767 1288 1793 2058 2140 2183 2237 1943
1 0 22 0 0 0 0 0 8 7 2 2 15 3 0 0 5 25 22 0 0 0 0 0 1 0 0 0 0 0 0 0 0 0 31 201 408 554 1256 1648 1884 1691 1542 1368
17 47 9 0 9 11 0 0 2 3 54 4 61 0 0 0 44 32 0 0 0 0 0 0 0 0 0 0 0 0 0 0 0 21 87 173 284 390 570 948 1335 1755 1687 1617
42 102 33 2 0 0 8 0 0 3 36 3 8 0 3 18 17 17 0 0 1 0 0 0 0 0 0 0 0 0 0 0 0 0 0 8 102 299 403 453 582 791 810 888
86 89 81 0 0 0 41 27 0 0 1 18 0 9 0 5 56 15 0 0 0 0 0 0 0 0 0 0 0 0 0 0 0 0 0 0 0 0 1 53 218 316 327 321
18 21 27 0 0 0 5 10 0 0 0 0 0 0 0 0 15 0 0 0 1 0 0 0 0 0 0 0 0 0 0 0 0 0 0 0 0 0 0 0 0 0 1 6
29 7 52 35 0 5 41 0 0 0 0 0 0 0 0 0 0 0 5 2 0 0 0 0 0 0 0 0 0 0 0 0 0 0 0 0 0 0 0 0 0 0 0 0
14 19 13 31 99 64 3 0 0 0 1 0 0 0 0 6 0 0 2 0 0 0 0 0 0 0 0 0 0 0 0 0 0 0 0 0 0 0 0 0 0 0 0 0
0 12 11 12 16 8 0 0 2 7 0 0 0 0 0 0 0 0 0 0 0 0 0 0 0 0 0 0 0 0 0 0 0 0 0 0 0 0 0 0 0 0 0 0
0 27 26 2 170 79 0 1 0 2 17 3 5 0 0 0 6 23 0 0 0 0 0 0 0 0 0 0 0 0 0 0 0 0 0 0 0 0 0 1 0 2 3 6
20 23 12 63 99 6 0 0 28 9 0 37 5 1 0 1 24 10 0 0 0 0 0 0 0 0 0 0 0 0 0 3 3 2 0 0 0 0 1 4 5 3 7 10
88 36 21 10 44 20 0 1 1 0 35 0 11 28 53 3 0 0 0 0 0 0 0 0 0 0 0 0 0 0 3 8 7 6 5 5 4 4 7 8 8 8 7 6
10 254 224 151 2 0 0 2 3 6 0 0 0 0 0 0 0 0 0 0 0 0 0 0 0 0 0 1 2 4 5 5 4 4 1 5 6 7 10 7 8 9 9 8
0 227 410 147 36 12 0 0 0 15 1 0 0 0 0 0 0 0 0 0 0 0 0 0 0 1 2 5 6 3 4 3 5 3 7 6 7 4 4 4 6 8 7 4
66 256 170 164 21 0 0 0 0 0 0 0 0 0 0 0 0 0 0 0 0 0 1 0 0 3 8 2 5 6 5 7 9 8 8 7 11 10 11 5 10 5 16 2
1 224 381 153 76 18 5 0 0 0 0 0 0 0 0 0 0 0 0 1 2 4 5 3 5 7 3 3 5 8 9 8 6 2 9 9 1 5 2 6 3 2 0 0
CIN
-0 -0 -0 -0 -0 -0 -0 -0 -0 -0 -0 -0 -0 -0 -0 -0 -0 -0 -0 -0 -0 -0 -0 -0 -0 -89 -84 -91 -104 -161 -178 -214 -251 -264 -251 -242 -233 -223 -218 -225 -225 -224 -216 -200
-0 -0 -0 -0 -0 -0 -0 -0 -0 -0 -0 -0 -0 -0 -0 -0 -0 -0 -0 -0 -0 -0 -0 -0 -0 -0 -85 -104 -133 -160 -179 -183 -199 -203 -206 -191 -182 -179 -190 -199 -227 -249 -256 -247
-0 -0 -0 -0 -0 -0 -0 -0 -0 -0 -0 -0 -0 -0 -0 -0 -0 -0 -0 -0 -0 -0 -0 -0 -0 -0 -0 -0 -169 -171 -171 -175 -179 -189 -180 -177 -181 -175 -168 -191 -192 -218 -246 -254
-0 -0 -0 -0 -0 -0 -0 -0 -0 -0 -0 -0 -0 -0 -0 -0 -0 -0 -0 -0 -0 -0 -0 -136 -169 -0 -0 -0 -0 -54 -195 -190 -204 -190 -187 -167 -149 -152 -151 -141 -149 -158 -176 -202
-0 -0 -0 -0 -0 -0 -0 -0 -0 -0 -0 -0 -0 -0 -0 -0 -0 -0 -0 -0 -0 -0 -24 -160 -176 -307 -436 -18 -0 -461 -305 -233 -224 -209 -205 -166 -160 -166 -143 -117 -123 -119 -126 -145
-0 -0 -0 -0 -0 -0 -0 -0 -0 -0 -0 -0 -0 -0 -0 -0 -0 -0 -0 -0 -0 -0 -0 -0 -134 -186 -241 -340 -431 -187 -396 -282 -250 -210 -192 -194 -163 -152 -141 -126 -110 -110 -103 -128
-0 -0 -0 -0 -0 -0 -0 -0 -0 -0 -0 -0 -0 -0 -0 -0 -0 -0 -0 -0 -0 -0 -218 -0 -56 -211 -222 -229 -261 -298 -296 -302 -277 -250 -221 -193 -173 -131 -133 -121 -112 -121 -114 -136
-0 -0 -0 -0 -0 -0 -0 -0 -0 -0 -0 -0 -0 -0 -0 -0 -0 -0 -0 -0 -0 -0 -0 -0 -0 -0 -0 -39 -293 -263 -244 -220 -203 -201 -180 -170 -155 -142 -134 -118 -110 -107 -90 -66
-0 -0 -0 -0 -0 -0 -0 -0 -0 -40 -0 -0 -0 -0 -0 -0 -0 -0 -0 -73 -11 -0 -0 -0 -0 -0 -0 -289 -347 -383 -334 -290 -237 -213 -203 -190 -146 -120 -143 -124 -94 -79 -71 -65
-0 -0 -0 -0 -0 -0 -0 -0 -0 -0 -0 -0 -0 -0 -0 -0 -0 -173 -77 -70 -209 -0 -0 -0 -0 -0 -0 -403 -424 -447 -491 -434 -434 -394 -329 -265 -223 -152 -120 -104 -103 -75 -93 -74
-0 -2 -0 -0 -0 -0 -0 -79 -0 -67 -0 -0 -0 -0 -0 -0 -0 -122 -161 -257 -0 -0 -0 -0 -0 -233 -363 -394 -439 -501 -539 -0 -0 -12 -550 -430 -272 -170 -111 -101 -106 -111 -105 -118
-74 -0 -2 -0 -0 -0 -0 -7 -96 -49 -36 -67 -35 -6 -0 -0 -69 -82 -167 -0 -0 -0 -0 -0 -242 -0 -0 -0 -0 -0 -0 -16 -0 -0 -560 -431 -330 -238 -96 -90 -80 -100 -126 -136
-17 -21 -0 -0 -1 -1 -0 -0 -58 -80 -41 -2 -6 -0 -0 -0 -145 -133 -0 -0 -0 -0 -0 -124 -0 -0 -0 -0 -0 -0 -0 -0 -0 -503 -431 -327 -247 -190 -132 -110 -82 -49 -58 -66
-92 -6 -30 -0 -0 -0 -0 -0 -0 -60 -68 -84 -38 -0 -39 -106 -123 -163 -0 -0 -97 -0 -0 -0 -0 -0 -0 -0 -0 -0 -0 -0 -0 -0 -0 -197 -256 -126 -108 -125 -115 -91 -104 -102
-2 -0 -0 -0 -0 -0 -6 -2 -0 -11 -30 -52 -10 -35 -0 -77 -85 -129 -0 -0 -0 -0 -0 -0 -0 -0 -0 -0 -0 -0 -0 -0 -0 -0 -0 -0 -0 -0 -19 -149 -129 -120 -141 -149
-0 -37 -25 -0 -0 -0 -39 -17 -0 -0 -0 -0 -0 -0 -0 -0 -122 -0 -0 -218 -81 -0 -0 -0 -0 -0 -0 -0 -0 -0 -0 -0 -0 -0 -0 -0 -0 -0 -0 -0 -0 -0 -0 -0
-0 -0 -9 -17 -0 -0 -1 -0 -0 -0 -0 -0 -0 -0 -0 -0 -0 -0 -168 -194 -60 -0 -0 -0 -0 -0 -0 -0 -0 -0 -0 -0 -0 -0 -0 -0 -0 -0 -0 -0 -0 -0 -0 -0
-0 -0 -0 -9 -0 -0 -0 -0 -0 -0 -0 -0 -0 -0 -25 -77 -0 -0 -182 -140 -0 -0 -0 -0 -0 -0 -0 -0 -0 -0 -0 -0 -0 -0 -0 -0 -0 -0 -0 -0 -0 -0 -0 -0
-0 -0 -0 -0 -1 -7 -0 -0 -2 -37 -0 -0 -0 -0 -0 -0 -0 -0 -0 -0 -0 -0 -0 -0 -0 -0 -0 -0 -0 -0 -0 -0 -0 -0 -0 -0 -0 -0 -0 -0 -0 -0 -0 -0
-0 -0 -0 -0 -0 -1 -0 -39 -0 -13 -3 -5 -46 -0 -0 -0 -25 -37 -0 -0 -0 -0 -0 -0 -0 -0 -0 -0 -0 -0 -0 -0 -0 -0 -0 -0 -0 -0 -0 -0 -0 -0 -0 -0
-16 -0 -27 -0 -0 -0 -0 -0 -8 -3 -0 -41 -61 -154 -0 -19 -55 -12 -0 -0 -0 -0 -0 -0 -0 -0 -0 -0 -0 -0 -0 -0 -0 -0 -0 -0 -0 -0 -0 -0 -0 -0 -0 -0
-14 -12 -2 -0 -15 -0 -0 -1 -3 -0 -145 -0 -163 -117 -83 -34 -0 -0 -0 -0 -0 -0 -0 -0 -0 -0 -0 -0 -0 -0 -0 -0 -0 -0 -0 -0 -0 -0 -0 -0 -0 -0 -0 -0
-1 -0 -0 -1 -0 -0 -0 -4 -47 -175 -0 -0 -0 -0 -0 -0 -0 -0 -0 -0 -0 -0 -0 -0 -0 -0 -0 -0 -0 -0 -0 -0 -0 -0 -0 -0 -0 -0 -0 -0 -0 -0 -0 -0
-0 -0 -0 -7 -27 -62 -0 -0 -0 -189 -189 -0 -0 -0 -0 -0 -0 -0 -0 -0 -0 -0 -0 -0 -0 -0 -0 -0 -0 -0 -0 -0 -0 -0 -0 -0 -0 -0 -0 -0 -0 -0 -0 -0
-0 -0 -0 -2 -47 -0 -0 -0 -0 -0 -0 -0 -0 -0 -0 -0 -0 -0 -0 -0 -0 -0 -0 -0 -0 -0 -0 -0 -0 -0 -0 -0 -0 -0 -0 -0 -0 -0 -0 -0 -0 -0 -0 -0
-0 -0 -0 -7 -29 -70 -12 -0 -0 -0 -0 -0 -0 -0 -0 -0 -0 -0 -0 -0 -0 -0 -0 -0 -0 -0 -0 -0 -0 -0 -0 -0 -0 -0 -0 -0 -0 -0 -0 -0 -0 -1 -4 -0
Wind_Speed
14 13 17 16 14 13 10 13 15 12 12 13 11 15 17 16 13 15 14 14 15 13 10 9 11 12 14 15 17 19 19 19 16 14 14 14 15 13 12 13 17 17 16 17
10 19 20 13 12 14 13 14 17 12 5 6 13 19 20 7 5 4 7 8 9 8 7 3 7 11 14 16 19 19 20 19 17 13 12 12 11 12 11 12 14 17 18 18
22 12 8 14 16 15 16 18 16 15 10 16 16 18 8 4 3 2 3 3 2 3 5 5 4 8 11 15 16 17 18 18 17 17 12 11 11 9 11 12 12 15 18 18
18 19 13 9 13 15 18 12 14 14 8 8 3 7 8 5 6 3 1 4 4 4 6 7 7 6 5 10 10 14 15 15 14 16 15 17 14 14 12 12 12 13 17 18
20 15 20 20 20 12 14 5 9 10 12 10 15 9 7 5 10 7 5 6 5 5 5 7 9 9 8 4 3 6 9 12 13 14 16 13 16 13 11 11 13 13 13 16
22 7 13 17 16 17 3 8 6 8 9 12 17 14 9 12 14 9 8 6 5 4 4 6 6 7 9 7 5 2 6 8 10 13 15 17 18 15 13 13 12 11 10 9
26 24 16 9 11 7 15 11 6 9 9 11 2 10 13 4 6 12 10 7 6 5 6 8 9 10 9 9 7 4 1 4 7 11 13 15 17 17 18 16 13 13 11 10
24 23 27 19 26 14 20 17 11 11 12 12 5 9 7 12 12 9 6 6 9 8 6 7 7 8 8 8 8 6 4 4 6 8 11 12 15 11 12 14 12 11 11 11
21 28 20 21 26 23 14 18 24 19 19 10 13 14 12 12 9 13 11 9 10 7 6 7 8 9 9 10 10 9 8 8 7 9 9 11 13 15 14 14 13 11 13 11
24 26 21 18 14 23 28 9 11 13 15 18 13 18 12 15 16 19 15 11 9 6 6 7 8 10 10 11 12 12 12 11 11 11 10 11 13 14 14 13 15 14 12 12
20 21 24 13 18 24 15 20 14 12 14 14 16 13 11 18 15 19 16 12 8 6 6 6 6 7 9 10 12 12 13 13 12 11 11 11 12 13 13 13 14 13 11 10
19 12 20 28 17 19 23 27 28 13 18 9 14 16 2 9 12 10 16 12 6 6 6 7 7 7 10 10 11 13 13 13 13 13 12 11 11 11 11 13 13 12 12 12
15 11 14 25 24 18 14 25 22 24 14 14 14 15 4 5 9 12 17 11 8 6 7 6 8 9 9 10 11 13 14 15 14 13 12 11 11 11 11 11 12 11 12 12
10 11 17 19 25 21 18 23 26 24 12 19 19 23 13 8 10 14 13 11 10 8 8 7 8 7 7 8 10 11 12 13 14 15 15 15 15 13 11 10 10 11 11 11
9 16 16 22 32 30 27 25 26 23 26 23 22 24 21 14 12 17 13 13 13 12 10 9 7 6 6 7 8 9 10 11 11 11 12 14 15 15 15 13 12 11 11 10
12 5 20 27 29 28 28 24 26 28 28 27 28 23 18 8 9 13 14 14 11 9 9 8 7 6 6 7 7 8 9 10 10 11 12 11 11 12 13 13 13 12 11 11
14 4 6 26 28 22 17 31 28 24 21 21 22 23 16 11 13 14 11 9 8 8 7 7 6 6 7 8 8 9 9 9 10 10 11 11 11 11 12 11 11 11 11 11
15 22 11 7 12 21 23 16 26 27 24 19 19 16 11 14 10 10 8 10 11 10 9 7 6 6 7 7 8 7 8 8 9 10 11 12 12 11 11 12 12 12 10 11
22 23 8 7 4 11 20 23 17 19 20 23 20 13 11 13 11 7 5 8 11 10 7 6 7 7 7 8 8 8 9 10 10 11 11 11 11 12 12 12 12 12 12 11
26 29 17 5 7 14 21 16 13 9 18 19 19 15 16 14 9 8 13 12 10 7 6 8 8 8 9 9 8 9 10 11 13 13 12 12 12 12 13 13 13 13 11 12
17 16 17 12 8 12 9 5 16 14 14 11 12 14 15 9 3 18 14 11 9 7 8 9 9 9 9 9 9 10 11 12 11 11 11 13 13 12 13 12 12 13 13 11
15 14 10 9 9 21 10 15 18 9 1 7 13 16 14 13 16 18 16 12 10 8 7 9 9 10 10 12 10 11 12 11 11 11 12 12 12 11 11 13 12 12 10 10
15 17 16 17 13 5 8 13 5 7 8 9 14 13 18 19 16 15 13 12 9 9 9 9 10 11 11 12 11 11 11 10 10 9 10 10 11 10 11 10 10 8 8 7
21 28 18 10 17 13 8 2 2 6 12 14 17 17 16 18 16 15 13 11 10 9 10 10 10 10 10 10 11 10 10 10 10 10 10 10 9 9 8 6 6 6 6 7
22 21 19 19 8 7 5 2 6 11 13 14 16 16 17 17 16 14 12 11 11 10 10 9 10 10 9 8 9 9 10 11 8 8 8 8 7 8 8 7 6 6 5 5
26 19 16 13 14 10 8 14 13 17 17 13 14 15 12 12 13 16 14 12 10 11 10 10 10 10 8 8 9 10 9 9 8 6 6 6 6 7 7 7 7 6 6 9
Wind_Direction
204 224 228 233 230 264 277 275 277 283 288 293 269 284 289 288 280 265 256 262 264 251 276 260 239 233 231 228 217 214 214 212 205 205 206 212 217 219 221 225 226 224 226 219
192 232 243 250 237 241 241 262 273 283 280 260 286 297 291 295 274 261 281 272 266 267 272 264 245 243 240 234 223 217 219 214 212 214 216 222 224 227 228 225 225 223 223 222
228 238 254 209 227 238 238 247 265 271 299 274 280 275 221 186 231 250 232 270 276 326 331 342 294 264 260 246 238 223 221 219 215 223 220 224 231 235 229 227 228 223 225 223
244 243 202 206 235 227 244 236 251 270 265 264 241 281 240 226 198 201 111 112 90 69 54 38 21 9 294 258 246 241 224 222 216 213 229 223 229 234 232 235 229 231 221 226
226 224 228 232 237 216 233 221 240 256 259 274 233 250 262 211 212 175 113 103 99 70 54 42 34 28 26 12 243 229 218 214 214 209 219 227 233 245 247 246 241 239 233 222
253 216 234 238 241 216 294 210 224 235 249 240 250 230 238 232 223 181 141 124 123 91 82 65 59 60 62 60 62 167 218 214 216 218 220 230 240 240 247 241 245 238 237 219
234 229 221 225 200 188 205 200 230 224 211 253 10 235 242 267 213 182 150 133 130 109 83 70 54 46 42 49 59 70 154 227 228 228 230 233 241 244 246 245 242 240 235 226
229 232 221 211 226 200 207 208 233 248 248 258 147 234 232 243 212 201 160 140 143 125 101 70 52 43 33 31 28 17 348 286 246 244 245 245 245 246 248 249 248 245 242 242
243 235 243 214 220 221 202 224 237 265 264 268 262 244 267 240 208 193 180 168 157 133 96 63 46 33 27 16 21 4 340 317 298 283 267 262 258 253 254 255 254 251 252 251
244 258 250 221 229 222 228 251 212 215 242 238 242 247 249 225 213 196 183 185 177 139 89 54 35 21 13 9 358 355 347 334 325 306 283 268 262 257 257 256 256 255 258 255
217 241 258 229 204 214 206 225 229 238 232 244 257 264 215 243 231 197 181 172 165 124 101 79 48 31 29 19 13 4 355 341 332 323 308 295 280 270 262 256 259 252 254 251
215 205 253 241 230 238 217 214 212 219 211 231 259 264 166 242 247 203 172 153 148 126 94 66 58 54 44 37 29 24 13 6 351 336 330 321 314 297 279 269 264 260 258 250
218 214 222 250 259 218 236 228 237 227 254 250 235 252 185 162 195 177 160 149 144 107 82 73 63 55 53 50 42 34 26 20 14 10 0 356 345 329 309 293 281 270 268 269
304 211 203 224 241 236 219 230 224 225 225 233 237 247 219 195 184 176 160 158 148 140 151 128 100 85 66 57 50 39 32 26 23 22 21 17 10 358 346 334 320 312 304 297
289 252 211 224 240 260 268 232 227 227 221 226 238 245 252 247 208 185 168 158 157 160 137 116 121 112 91 67 49 36 31 25 24 30 28 20 12 10 5 4 358 352 345 336
320 278 228 237 242 243 255 260 257 234 232 240 247 257 262 247 157 166 175 172 155 123 125 128 122 101 75 50 35 36 30 27 21 16 14 20 22 14 3 360 360 0 357 349
296 244 271 237 229 246 248 236 247 248 236 246 243 245 249 202 210 192 162 146 143 143 133 117 101 67 38 31 20 24 21 19 19 17 13 5 15 16 2 355 356 358 355 353
266 285 228 284 240 231 243 246 239 248 248 240 239 241 254 216 163 144 152 154 155 148 140 133 116 89 55 34 27 26 20 30 22 17 10 9 7 9 13 359 2 358 354 357
217 261 249 193 225 305 268 232 228 227 243 234 234 230 155 127 132 120 145 143 146 145 133 116 96 82 66 43 30 26 26 22 22 17 15 12 6 6 18 358 356 356 358 359
226 231 240 169 207 227 248 217 227 232 251 233 213 185 156 150 184 160 153 138 133 128 116 103 89 68 53 34 34 35 36 30 23 12 11 12 13 11 6 356 1 356 1 9
200 209 226 234 226 252 249 292 179 206 260 196 191 148 144 168 131 126 136 131 121 117 108 109 87 70 50 37 39 49 38 29 17 11 14 17 13 11 6 4 12 11 20 29
231 189 199 210 225 249 213 208 210 232 55 137 140 161 149 123 132 136 128 129 133 128 104 91 86 70 52 41 41 45 37 11 11 12 18 20 17 15 16 21 22 26 32 42
272 209 196 190 205 97 211 250 181 164 142 145 125 131 140 140 125 124 133 139 129 108 96 81 84 73 55 45 38 37 16 18 15 19 15 17 17 19 18 17 15 17 17 15
282 238 217 195 220 223 194 223 186 130 129 143 127 149 136 127 135 142 140 133 119 102 92 90 87 78 64 47 41 31 16 10 26 23 19 13 12 4 10 10 7 1 4 348
265 221 217 208 134 139 153 214 131 111 112 126 134 131 132 138 141 137 127 120 105 102 101 100 90 77 65 50 46 31 21 14 20 27 14 5 3 1 3 5 2 360 356 347
272 213 213 220 181 205 159 159 159 138 131 132 125 121 121 136 132 120 111 108 117 112 109 96 85 80 67 54 47 34 25 23 17 15 12 4 355 357 358 355 349 343 322 332